SUPERBIRD-C2            
1 33274U 08038A   19258.85860608 -.00000260  00000-0  00000-0 0  9993
2 33274   0.0105 172.3046 0002382  26.1441 249.1088  1.00271661 80995
AMC-21                  
1 33275U 08038B   19259.53151757  .00000029  00000-0  00000+0 0  9999
2 33275   0.0438 329.2011 0002728 206.2428 246.1886  1.00271786 40740
ARIANE 5 R/B            
1 33276U 08038C   19258.85069890  .00000423  00000-0  34547-3 0  9995
2 33276   1.8746 162.4313 7148681  56.6389 352.3457  2.43379753 95647
ARIANE 5 DEB [SYLDA]    
1 33277U 08038D   19259.36158246 -.00000237  00000-0 -52202-3 0  9990
2 33277   2.4720 303.6732 5632236 130.9460 293.3633  4.38657864134304